Regional Weather Roundup
Issued by NWS

Home | Current Version | Previous Version | Text Only | Print | Product List | Glossary On
Versions: 1 2 3 4 5 6 7 8 9 10 11 12 13 14 15 16 17 18 19 20 21 22 23 24 25 26 27 28 29 30 31 32 33 34 35 36 37 38 39 40 41 42 43 44 45 46 47 48 49 50
000
ASUS43 KLSX 271907
RWRMO

WEATHER SUMMARY FOR MISSOURI
NATIONAL WEATHER SERVICE SPRINGFIELD MO
200 PM CDT WED AUG 27 2014

NOTE: "FAIR" INDICATES FEW OR NO CLOUDS BELOW 12,000 FEET WITH NO
       SIGNIFICANT WEATHER AND/OR OBSTRUCTIONS TO VISIBILITY.
       CURRENT SKY AND/OR WEATHER CONDITIONS ARE NOT AVAILABLE FOR
       CHILLICOTHE AND FARMINGTON.

MOZ001>031-035>038-043-044-053-054-272000-
...NORTHERN AND WESTERN MISSOURI...

CITY           SKY/WX    TMP DP  RH WIND       PRES   REMARKS
KANSAS CTY INT PTSUNNY   81  67  62 E10       30.13F
KANSAS C DTWN  PTSUNNY   86  67  52 E15G21    30.10F
LEE`S SUMMIT   PTSUNNY   84  71  65 E9        30.12F
ST JOSEPH      CLOUDY    77  71  82 NE6       30.12F
CHILLICOTHE      N/A     76  70  82 E5        30.14F
KIRKSVILLE     LGT RAIN  73  71  93 N9        30.15F

$$
MOZ066>068-077>081-088>096-101>105-272000-
...SOUTHWEST MISSOURI...

CITY           SKY/WX    TMP DP  RH WIND       PRES   REMARKS
SPRINGFIELD    MOSUNNY   96  66  37 NW6       30.09F HX  99
JOPLIN         PTSUNNY   94  67  41 VRB7      30.08F HX  97

$$
MOZ032>034-039>042-045>050-055>058-069>072-272000-
...CENTRAL MISSOURI...

CITY           SKY/WX    TMP DP  RH WIND       PRES   REMARKS
COLUMBIA       PTSUNNY   87  75  67 N15       30.11F HX  96
JEFFERSON CITY MOSUNNY   91  74  57 N9        30.07F HX 100
ROLLA          MOSUNNY   76  66  71 W17       30.11R THUNDER
SEDALIA        CLOUDY    86  74  67 NE8       30.12F HX  94
WHITEMAN AFB   MOSUNNY   83  50  30 NE9       30.11S
OSAGE BEACH    MOSUNNY   91  72  52 NW6       30.09F HX  98

$$
MOZ051-052-059>065-272000-
...EAST CENTRAL MISSOURI...

CITY           SKY/WX    TMP DP  RH WIND       PRES   REMARKS
ST LOUIS INTL  PTSUNNY   94  73  50 CALM      30.08F HX 103
SPIRIT OF STL  PTSUNNY   92  73  53 NW5       30.06F HX 100
ST CHARLES     MOSUNNY   90  71  53 W6        30.07F HX  96

$$
MOZ072>076-082>087-097>100-106>115-272000-
...SOUTH CENTRAL AND SOUTHEAST MISSOURI...

CITY           SKY/WX    TMP DP  RH WIND       PRES   REMARKS
CAPE GIRARDEAU SUNNY     92  71  50 SE3       30.07S HX  98
FARMINGTON     SUNNY     93  64  38 S6        30.10F HX  95
POPLAR BLUFF   SUNNY     92  68  45 NE7       30.06F HX  96
WEST PLAINS    MOSUNNY   92  65  40 VRB3      30.11F HX  94

$$


USA.gov is the U.S. government's official web portal to all federal, state and local government web resources and services.